FW4174 Weather Reports


time (UTC)temp
C
wind
direction
speed
KPH
gust
KPH
rain 1hr
cm
rain 24hr
cm
rain mn
cm
humidity
%
barometer
mb
20260906184046 22 360 6.4 14.5 0.00 0.23 0.23 93 1017.8
20260906183546 22 140 9.7 14.5 0.00 0.23 0.23 93 1017.8
20260906183102 22 360 6.4 12.9 0.00 0.23 0.23 93 1018.0
20260906182547 22 360 4.8 12.9 0.00 0.23 0.23 93 1017.9
20260906182043 22 360 1.6 11.3 0.00 0.23 0.23 93 1018.1
20260906181609 22 125 3.2 11.3 0.00 0.23 0.23 93 1018.5
20260906181043 22 119 3.2 9.7 0.00 0.23 0.23 93 1018.3
20260906180543 22 106 4.8 9.7 0.00 0.23 0.23 93 1018.4
20260906180119 22 109 4.8 11.3 0.00 0.23 0.23 93 1018.3
20260906175543 22 140 4.8 14.5 0.00 0.23 0.23 93 1018.1
20260906175046 22 159 6.4 14.5 0.00 0.23 0.23 93 1017.8
20260906174603 22 111 8.0 16.1 0.00 0.23 0.23 93 1018.0
20260906174043 22 119 8.0 16.1 0.00 0.23 0.23 93 1018.0
20260906173547 22 360 4.8 14.5 0.00 0.23 0.23 93 1018.3
20260906173100 22 126 8.0 14.5 0.00 0.23 0.23 93 1018.4
20260906172546 22 113 4.8 12.9 0.00 0.23 0.23 93 1018.2
20260906172047 22 360 6.4 12.9 0.00 0.23 0.23 93 1017.9
20260906171604 22 144 4.8 17.7 0.00 0.23 0.23 93 1018.2
20260906171045 22 131 8.0 17.7 0.00 0.23 0.23 93 1018.2
20260906170546 22 122 11.3 17.7 0.00 0.23 0.23 93 1018.4
20260906170120 22 360 9.7 16.1 0.00 0.23 0.23 93 1018.5
20260906165547 22 94 4.8 14.5 0.00 0.23 0.23 93 1018.0
20260906165048 22 88 3.2 16.1 0.00 0.23 0.23 93 1017.6
20260906164603 22 360 8.0 19.3 0.00 0.23 0.23 93 1017.4
20260906164047 22 360 9.7 20.9 0.00 0.23 0.23 93 1017.3
20260906163547 22 88 12.9 22.5 0.00 0.23 0.23 93 1017.3
20260906163116 22 115 9.7 24.1 0.00 0.23 0.23 94 1017.4
20260906162548 22 112 12.9 24.1 0.00 0.23 0.23 94 1017.2
20260906162049 22 105 16.1 24.1 0.00 0.23 0.23 94 1017.2
20260906161604 22 88 12.9 19.3 0.00 0.23 0.23 94 1017.3
20260906161047 22 360 6.4 20.9 0.00 0.23 0.23 94 1017.3
20260906160547 22 142 11.3 20.9 0.03 0.23 0.23 94 1017.3
20260906160110 22 84 9.7 20.9 0.05 0.23 0.23 94 1017.2
20260906155546 22 96 12.9 24.1 0.08 0.23 0.23 94 1017.2
20260906155046 22 130 12.9 25.7 0.10 0.23 0.23 94 1017.3
20260906154600 22 96 11.3 25.7 0.15 0.23 0.23 94 1017.2
20260906154047 22 110 14.5 22.5 0.23 0.23 0.23 94 1017.3
20260906153546 22 127 11.3 19.3 0.23 0.23 0.23 94 1017.5
20260906153102 22 360 4.8 11.3 0.23 0.23 0.23 95 1017.6
20260906152547 22 96 3.2 9.7 0.23 0.23 0.23 94 1017.2
20260906152047 22 360 1.6 9.7 0.23 0.23 0.23 94 1017.2
20260906151602 22 82 3.2 12.9 0.23 0.23 0.23 94 1017.1
20260906151047 21 83 3.2 16.1 0.23 0.23 0.23 94 1016.8
20260906150547 21 111 8.0 16.1 0.20 0.20 0.20 94 1017.1
20260906150113 21 93 4.8 12.9 0.15 0.15 0.15 94 1017.1
20260906145548 22 360 6.4 16.1 0.15 0.15 0.15 94 1017.0
20260906145046 22 130 8.0 16.1 0.13 0.13 0.13 94 1017.1
20260906144604 22 109 8.0 17.7 0.05 0.05 0.05 94 1017.2
20260906144047 21 360 9.7 17.7 0.00 0.00 0.00 95 1017.3
20260906143548 21 119 8.0 14.5 0.00 0.00 0.00 95 1017.2
20260906143105 21 86 8.0 12.9 0.00 0.00 0.00 95 1017.2
20260906142545 21 93 6.4 16.1 0.00 0.00 0.00 95 1017.1
20260906142046 21 103 6.4 16.1 0.00 0.00 0.00 95 1017.0
20260906141601 21 103 8.0 16.1 0.00 0.00 0.00 95 1017.3
20260906141045 21 360 8.0 12.9 0.00 0.00 0.00 95 1017.3
20260906140548 21 360 4.8 14.5 0.00 0.00 0.00 95 1017.4
20260906135549 21 98 6.4 14.5 0.00 0.00 0.00 95 1017.1
20260906135045 21 113 8.0 16.1 0.00 0.00 0.00 95 1017.1
20260906134602 21 136 6.4 16.1 0.00 0.00 0.00 95 1017.3
20260906134046 21 103 8.0 16.1 0.00 0.00 0.00 95 1017.1
20260906133545 21 125 4.8 12.9 0.00 0.00 0.00 95 1017.3
20260906133133 21 124 6.4 17.7 0.00 0.00 0.00 95 1017.3
20260906132546 21 128 6.4 17.7 0.00 0.00 0.00 95 1017.2
20260906132046 21 117 9.7 17.7 0.00 0.00 0.00 95 1017.1
20260906131602 21 134 8.0 17.7 0.00 0.00 0.00 95 1017.0
20260906131046 21 109 8.0 16.1 0.00 0.00 0.00 95 1017.1
20260906130545 21 122 6.4 16.1 0.00 0.00 0.00 96 1016.8
20260906130109 21 360 8.0 14.5 0.00 0.00 0.00 96 1016.8
20260906125545 21 107 6.4 14.5 0.00 0.00 0.00 96 1016.7
20260906125043 21 123 6.4 14.5 0.00 0.00 0.00 96 1016.7
20260906124608 21 360 8.0 14.5 0.00 0.00 0.00 96 1016.9
20260906124045 21 360 9.7 14.5 0.00 0.00 0.00 96 1016.7
20260906123542 21 360 4.8 14.5 0.00 0.00 0.00 96 1016.8
20260906123100 21 129 8.0 14.5 0.00 0.00 0.00 96 1016.8
20260906122545 21 86 8.0 14.5 0.00 0.00 0.00 96 1016.8
20260906122046 21 62 8.0 14.5 0.00 0.00 0.00 96 1016.7
20260906121557 20 360 6.4 12.9 0.00 0.00 0.00 96 1016.7
20260906121045 20 69 6.4 12.9 0.00 0.00 0.00 96 1016.7
20260906120545 20 74 6.4 12.9 0.00 0.00 0.00 96 1016.7
20260906120105 20 71 4.8 12.9 0.00 0.00 0.00 96 1016.6
20260906115545 20 72 6.4 12.9 0.00 0.00 0.00 96 1016.6
20260906115045 20 360 6.4 12.9 0.00 0.00 0.00 96 1016.5
20260906114603 20 66 4.8 11.3 0.00 0.00 0.00 96 1016.5
20260906114045 20 86 4.8 11.3 0.00 0.00 0.00 96 1016.5
20260906113545 20 80 4.8 9.7 0.00 0.00 0.00 96 1016.6
20260906113102 20 86 4.8 9.7 0.00 0.00 0.00 96 1016.5
20260906112543 20 82 4.8 9.7 0.00 0.00 0.00 96 1016.4
20260906112045 20 101 4.8 9.7 0.00 0.00 0.00 96 1016.4
20260906111613 20 88 3.2 9.7 0.00 0.00 0.00 96 1016.4
20260906111046 20 87 3.2 9.7 0.00 0.00 0.00 96 1016.4
20260906110543 20 360 4.8 9.7 0.00 0.00 0.00 95 1016.4
20260906110100 20 98 3.2 6.4 0.00 0.00 0.00 95 1016.5
20260906105542 20 78 3.2 6.4 0.00 0.00 0.00 95 1016.6
20260906105046 20 84 3.2 6.4 0.00 0.00 0.00 96 1016.6
20260906104602 20 84 3.2 6.4 0.00 0.00 0.00 96 1016.6
20260906104045 20 84 1.6 6.4 0.00 0.00 0.00 95 1016.6
20260906103544 20 117 3.2 6.4 0.00 0.00 0.00 95 1016.5
20260906103059 20 117 1.6 9.7 0.00 0.00 0.00 95 1016.4
20260906102542 20 111 3.2 9.7 0.00 0.00 0.00 95 1016.4
20260906102044 20 155 3.2 9.7 0.00 0.00 0.00 95 1016.4
20260906101601 20 117 3.2 6.4 0.00 0.00 0.00 95 1016.4
20260906101043 20 120 3.2 9.7 0.00 0.00 0.00 95 1016.3
20260906100543 21 161 4.8 9.7 0.00 0.00 0.00 95 1016.4
20260906100100 21 141 4.8 8.0 0.00 0.00 0.00 95 1016.4
20260906095547 21 132 3.2 9.7 0.00 0.00 0.00 95 1016.4
20260906095043 21 132 3.2 9.7 0.00 0.00 0.00 95 1016.4
20260906094559 21 123 4.8 9.7 0.00 0.00 0.00 95 1016.2
20260906094045 21 113 3.2 9.7 0.00 0.00 0.00 95 1016.3
20260906093547 21 138 4.8 9.7 0.00 0.00 0.00 95 1016.3
20260906093103 21 121 3.2 11.3 0.00 0.00 0.00 95 1016.3
20260906092543 21 107 6.4 12.9 0.00 0.00 0.00 95 1016.3
20260906092046 21 100 4.8 12.9 0.00 0.00 0.00 95 1016.2
20260906091558 21 121 6.4 12.9 0.00 0.00 0.00 95 1016.2
20260906091045 21 110 4.8 14.5 0.00 0.00 0.00 95 1016.1
20260906090544 21 99 4.8 14.5 0.00 0.00 0.00 95 1016.0
20260906090103 21 100 6.4 12.9 0.00 0.00 0.00 95 1016.0
20260906085549 21 103 6.4 11.3 0.00 0.00 0.00 95 1016.0
20260906085044 21 103 6.4 12.9 0.00 0.00 0.00 95 1015.9
20260906084602 21 95 8.0 12.9 0.00 0.00 0.00 95 1015.9
20260906084045 21 88 4.8 11.3 0.00 0.00 0.00 95 1015.9
20260906083544 21 119 4.8 11.3 0.00 0.00 0.00 95 1016.0
20260906083100 21 360 4.8 9.7 0.00 0.00 0.00 95 1016.0
20260906082545 21 85 4.8 9.7 0.00 0.00 0.00 95 1016.1
20260906082045 21 98 4.8 9.7 0.00 0.00 0.00 95 1016.1
20260906081604 21 74 4.8 11.3 0.00 0.00 0.00 95 1016.1
20260906081048 21 88 4.8 11.3 0.00 0.00 0.00 95 1016.3
20260906080547 21 86 3.2 9.7 0.00 0.00 0.00 95 1016.2
20260906080104 21 360 4.8 11.3 0.00 0.00 0.00 95 1016.1
20260906075547 21 103 6.4 11.3 0.00 0.00 0.00 95 1016.1
20260906075050 21 93 4.8 11.3 0.00 0.00 0.00 95 1016.0
20260906074603 21 72 4.8 9.7 0.00 0.00 0.00 95 1016.0
20260906074046 21 109 4.8 12.9 0.00 0.00 0.00 95 1015.9
20260906073546 21 83 4.8 12.9 0.00 0.00 0.00 95 1015.8
20260906073106 21 88 4.8 11.3 0.00 0.00 0.00 95 1016.0
20260906072545 21 109 4.8 11.3 0.00 0.00 0.00 95 1016.1
20260906072045 21 107 3.2 11.3 0.00 0.00 0.00 95 1016.1
20260906071603 21 95 3.2 11.3 0.00 0.00 0.00 95 1016.2
20260906071045 21 111 3.2 9.7 0.00 0.00 0.00 95 1016.2
20260906070545 21 113 3.2 9.7 0.00 0.00 0.00 95 1016.2
20260906070103 21 93 3.2 11.3 0.00 0.00 0.00 95 1016.2
20260906065548 21 115 4.8 11.3 0.00 0.00 0.00 95 1016.2
20260906065047 21 94 6.4 9.7 0.00 0.00 0.00 95 1016.2
20260906064600 21 108 4.8 11.3 0.00 0.00 0.00 94 1016.1
20260906064044 21 126 3.2 12.9 0.00 0.00 0.00 94 1016.2
20260906063545 21 88 6.4 12.9 0.00 0.00 0.00 94 1016.2
20260906063100 21 360 4.8 12.9 0.00 0.00 0.00 94 1016.1
20260906062547 21 110 6.4 16.1 0.00 0.00 0.00 94 1016.1
20260906062047 21 103 6.4 16.1 0.00 0.00 0.00 94 1016.0
20260906061604 21 96 8.0 16.1 0.00 0.00 0.00 94 1016.0
20260906061047 21 89 9.7 16.1 0.00 0.00 0.00 94 1016.1
20260906060545 21 82 8.0 14.5 0.00 0.00 0.00 94 1016.2
20260906055545 21 360 6.4 12.9 0.00 0.00 0.00 94 1016.3
20260906055045 21 360 4.8 11.3 0.00 0.00 0.00 94 1016.3
20260906054607 21 84 6.4 11.3 0.00 0.00 0.00 94 1016.4
20260906054045 21 97 4.8 11.3 0.00 0.00 0.00 94 1016.4
20260906053545 21 84 4.8 12.9 0.00 0.00 0.00 94 1016.3
20260906053102 21 94 4.8 12.9 0.00 0.00 0.00 94 1016.4
20260906052550 22 64 4.8 12.9 0.00 0.00 0.00 94 1016.3
20260906052048 22 51 6.4 12.9 0.00 0.00 0.00 94 1016.3
20260906051613 22 75 4.8 11.3 0.00 0.00 0.00 94 1016.3
20260906051045 22 74 4.8 11.3 0.00 0.00 0.00 94 1016.2
20260906050548 22 78 4.8 11.3 0.00 0.00 0.00 94 1016.2
20260906050106 22 91 4.8 11.3 0.00 0.00 0.00 94 1016.1
20260906045545 22 86 4.8 11.3 0.00 0.00 0.00 94 1016.1
20260906045048 22 102 4.8 11.3 0.00 0.00 0.00 94 1016.1
20260906044608 22 75 4.8 11.3 0.00 0.00 0.00 93 1016.1
20260906044045 22 66 4.8 11.3 0.00 0.00 0.00 93 1016.1
20260906043546 22 64 6.4 11.3 0.00 0.00 0.00 93 1016.0
20260906043100 22 53 4.8 12.9 0.00 0.00 0.00 93 1016.0
20260906042549 22 86 6.4 12.9 0.00 0.00 0.00 93 1015.9
20260906042046 22 74 6.4 14.5 0.00 0.00 0.00 93 1015.9
20260906041557 22 88 6.4 14.5 0.00 0.00 0.00 93 1015.8
20260906041047 22 86 6.4 12.9 0.00 0.00 0.00 93 1015.9
20260906040545 22 64 8.0 12.9 0.00 0.00 0.00 93 1015.8
20260906040135 22 94 8.0 16.1 0.00 0.00 0.00 93 1015.8
20260906035544 22 82 8.0 16.1 0.00 0.00 0.00 93 1015.7
20260906035047 22 92 9.7 17.7 0.00 0.00 0.00 93 1015.6
20260906034615 22 74 9.7 17.7 0.00 0.00 0.00 93 1015.6
20260906034047 23 84 8.0 17.7 0.00 0.00 0.00 93 1015.7
20260906033547 23 77 8.0 17.7 0.00 0.00 0.00 93 1015.7
20260906033107 23 69 9.7 17.7 0.00 0.00 0.00 93 1015.7
20260906032547 23 86 8.0 17.7 0.00 0.00 0.00 93 1015.7
20260906032047 23 66 8.0 17.7 0.00 0.00 0.00 93 1015.6
20260906031559 23 94 8.0 14.5 0.00 0.00 0.00 93 1015.6
20260906031047 23 81 6.4 14.5 0.00 0.00 0.00 93 1015.6
20260906030545 23 87 6.4 14.5 0.00 0.00 0.00 93 1015.6
20260906030104 23 74 8.0 14.5 0.00 0.00 0.00 93 1015.6
20260906025544 23 69 6.4 12.9 0.00 0.00 0.00 93 1015.7
20260906025048 23 53 6.4 12.9 0.00 0.00 0.00 93 1015.6
20260906024613 23 77 4.8 12.9 0.00 0.00 0.00 93 1015.7
20260906024046 23 74 4.8 12.9 0.00 0.00 0.00 93 1015.8
20260906023547 23 65 4.8 12.9 0.00 0.00 0.00 93 1015.9
20260906023102 23 57 6.4 11.3 0.00 0.00 0.00 93 1015.9
20260906022548 23 92 4.8 11.3 0.00 0.00 0.00 93 1015.9
20260906022047 24 360 4.8 8.0 0.00 0.00 0.00 93 1015.9
20260906021601 24 68 3.2 8.0 0.00 0.00 0.00 93 1016.0
20260906021046 24 65 3.2 6.4 0.00 0.00 0.00 93 1015.8
20260906020547 24 74 3.2 4.8 0.00 0.00 0.00 93 1015.8
20260906015546 24 111 1.6 4.8 0.00 0.00 0.00 93 1015.7
20260906015046 23 111 1.6 4.8 0.00 0.00 0.00 92 1015.6
20260906014601 23 111 0.0 3.2 0.00 0.00 0.00 92 1015.6
20260906014048 24 111 0.0 1.6 0.00 0.00 0.00 92 1015.6
20260906013547 24 0 0.0 1.6 0.00 0.00 0.00 92 1015.5
20260906013112 24 0 0.0 1.6 0.00 0.00 0.00 91 1015.5
20260906012547 24 0 0.0 1.6 0.00 0.00 0.00 91 1015.4
20260906012048 24 0 0.0 1.6 0.00 0.00 0.00 91 1015.4
20260906011602 24 0 0.0 1.6 0.00 0.00 0.00 91 1015.1
20260906011047 24 0 0.0 1.6 0.00 0.00 0.00 91 1015.1
20260906010548 24 0 0.0 3.2 0.00 0.00 0.00 90 1014.9
20260906005550 25 111 0.0 4.8 0.00 0.00 0.00 89 1014.7
20260906005047 25 111 1.6 4.8 0.00 0.00 0.00 88 1014.7
20260906004604 25 111 1.6 6.4 0.00 0.00 0.00 88 1014.7
20260906004047 25 111 1.6 6.4 0.00 0.00 0.00 87 1014.8
20260906003547 26 107 3.2 11.3 0.00 0.00 0.00 87 1014.9
20260906003104 26 120 4.8 12.9 0.00 0.00 0.00 86 1015.0
20260906002547 26 128 4.8 12.9 0.00 0.00 0.00 85 1015.1
20260906002048 26 114 8.0 14.5 0.00 0.00 0.00 85 1015.0
20260906001608 26 108 6.4 16.1 0.00 0.00 0.00 84 1015.0
20260906001047 26 106 8.0 16.1 0.00 0.00 0.00 84 1015.0
20260906000547 26 360 4.8 17.7 0.00 0.00 0.00 84 1015.1
20260906000104 26 101 6.4 17.7 0.00 0.00 0.00 83 1015.1
20260905235547 27 90 9.7 17.7 0.00 0.00 0.00 83 1015.0
20260905235047 27 88 8.0 17.7 0.00 0.00 0.00 83 1014.9
20260905234606 27 101 12.9 17.7 0.00 0.00 0.00 82 1014.9
20260905234046 27 360 9.7 17.7 0.00 0.00 0.00 82 1014.8
20260905233548 27 76 11.3 17.7 0.00 0.00 0.00 82 1014.9
20260905233104 27 108 9.7 16.1 0.00 0.00 0.00 83 1014.9
20260905232547 27 111 8.0 16.1 0.00 0.00 0.00 82 1014.8
20260905232047 27 102 9.7 16.1 0.00 0.00 0.00 82 1014.8
20260905231605 27 111 9.7 16.1 0.00 0.00 0.00 82 1014.7
20260905231046 27 126 6.4 16.1 0.00 0.00 0.00 82 1014.7
20260905230545 27 104 8.0 17.7 0.00 0.00 0.00 81 1014.6
20260905230126 27 98 9.7 19.3 0.00 0.00 0.00 80 1014.7
20260905225543 27 80 12.9 19.3 0.00 0.00 0.00 79 1014.7
20260905225044 27 360 12.9 19.3 0.00 0.00 0.00 79 1014.7
20260905224616 27 101 11.3 19.3 0.00 0.00 0.00 79 1014.5
20260905224045 27 111 12.9 19.3 0.00 0.00 0.00 78 1014.4
20260905223545 27 87 11.3 19.3 0.00 0.00 0.00 78 1014.4
20260905223116 27 81 11.3 19.3 0.00 0.00 0.00 78 1014.4
20260905222545 27 108 9.7 17.7 0.00 0.00 0.00 79 1014.3
20260905222049 27 98 11.3 20.9 0.00 0.00 0.00 78 1014.4
20260905221605 27 129 11.3 20.9 0.00 0.00 0.00 78 1014.3
20260905221045 27 80 8.0 20.9 0.00 0.00 0.00 77 1014.2
20260905220544 27 89 12.9 20.9 0.00 0.00 0.00 77 1014.2
20260905215545 27 96 11.3 17.7 0.00 0.00 0.00 76 1014.4
20260905215048 27 103 11.3 19.3 0.00 0.00 0.00 75 1014.3
20260905214604 27 75 9.7 19.3 0.00 0.00 0.00 76 1014.3
20260905214045 27 80 12.9 19.3 0.00 0.00 0.00 76 1014.3
20260905213545 27 87 11.3 19.3 0.00 0.00 0.00 77 1014.2
20260905213106 27 109 12.9 22.5 0.00 0.00 0.00 76 1014.1
20260905212545 27 68 12.9 22.5 0.00 0.00 0.00 76 1014.1
20260905212044 28 75 14.5 22.5 0.00 0.00 0.00 76 1014.0
20260905211559 28 86 11.3 20.9 0.00 0.00 0.00 76 1014.0
20260905211045 28 69 14.5 22.5 0.00 0.00 0.00 76 1014.0
20260905210545 27 90 16.1 24.1 0.00 0.00 0.00 77 1014.1
20260905210107 27 82 16.1 24.1 0.00 0.00 0.00 76 1014.0
20260905205544 27 89 12.9 24.1 0.00 0.00 0.00 77 1014.0
20260905205044 27 75 14.5 24.1 0.00 0.00 0.00 78 1014.1
20260905204558 26 70 14.5 22.5 0.00 0.00 0.00 78 1014.2
20260905204044 26 89 14.5 22.5 0.00 0.00 0.00 78 1014.2
20260905203546 26 83 11.3 20.9 0.00 0.00 0.00 78 1014.4
20260905203102 26 86 12.9 20.9 0.00 0.00 0.00 78 1014.6
20260905202545 26 106 11.3 17.7 0.00 0.00 0.00 78 1014.6
20260905202044 26 74 11.3 24.1 0.00 0.00 0.00 78 1014.4
20260905201559 26 40 11.3 24.1 0.00 0.00 0.00 78 1014.3
20260905201044 26 59 12.9 20.9 0.00 0.00 0.00 77 1014.3
20260905200544 26 74 12.9 22.5 0.00 0.00 0.00 78 1014.2
20260905200106 26 61 16.1 24.1 0.00 0.00 0.00 78 1014.3
20260905195548 26 15 14.5 25.7 0.00 0.00 0.00 77 1014.3
20260905195048 26 37 16.1 25.7 0.00 0.00 0.00 77 1014.3
20260905194559 26 89 12.9 20.9 0.00 0.00 0.00 78 1014.3
20260905194049 26 88 11.3 20.9 0.00 0.00 0.00 78 1014.3
20260905193547 26 360 12.9 20.9 0.00 0.00 0.00 78 1014.3
20260905193103 26 76 11.3 22.5 0.00 0.00 0.00 78 1014.3
20260905192548 26 56 11.3 22.5 0.00 0.00 0.00 78 1014.3
20260905192048 26 51 14.5 24.1 0.00 0.00 0.00 78 1014.4
20260905191608 26 71 14.5 24.1 0.00 0.00 0.00 78 1014.4
20260905191047 26 42 12.9 22.5 0.00 0.00 0.00 77 1014.5
20260905190549 26 62 14.5 22.5 0.00 0.00 0.00 78 1014.6
20260905190104 26 57 14.5 20.9 0.00 0.00 0.00 77 1014.5
20260905185546 26 51 12.9 20.9 0.00 0.00 0.00 77 1014.6
20260905185052 26 68 12.9 19.3 0.00 0.00 0.00 77 1014.7
20260905184608 26 57 12.9 22.5 0.00 0.00 0.00 77 1014.7